#timestamp,LO_Frequency,Hit,StdDev 
1581440415.5,286046993.9,N
1581440435.4,286046991.7,N
1581440455.2,286046993.7,N
1581440475.0,286046993.6,N
1581440475.9,286046993.6,N
1581440495.8,286046994.6,N
1581440515.6,286046994.6,N
1581440535.4,286046993.5,N
1581440555.3,286046994.5,N
1581440575.1,286046993.6,N
1581440595.9,286046994.2,N
1581440615.7,286046994.4,N
1581440635.5,286046994.5,N
1581440655.4,286046994.6,N
1581440675.2,286046993.5,Y
1581440695.1,286047002.2,P
1581440696.0,286047002.2,N
1581440715.8,286047003.4,N
1581440735.6,286047005.4,N
1581440755.5,286047005.4,N
1581440775.3,286047007.2,N
1581440795.1,286047005.0,N
1581440815.9,286047005.4,N
1581440835.7,286047002.5,N
1581440855.6,286046999.8,N
1581440875.4,286047001.0,N
1581440895.2,286047000.4,N
1581440915.1,286047000.5,N
1581440916.0,286047000.5,N
1581440935.8,286047000.7,N
1581440955.7,286046998.7,N
1581440975.5,286047002.8,N
1581440995.3,286047002.7,N
1581441015.2,286047000.0,N
1581441035.0,286047000.7,N
1581441035.9,286047000.7,N
1581441055.7,286047000.5,N
1581441075.6,286047002.5,N
1581441095.4,286047004.4,N
1581441115.3,286047004.3,N
1581441135.1,286047003.6,N
1581441136.0,286047003.6,N
1581441155.8,286047003.6,N
1581441175.7,286047003.3,N
1581441195.5,286047004.4,N
1581441215.3,286047001.4,N
1581441235.2,286047002.7,N
1581441255.0,286047000.7,N
1581441255.9,286047000.7,N
1581441275.8,286046999.0,N
1581441295.6,286046996.9,N
1581441315.4,286046999.0,N
1581441335.3,286046999.1,N
1581441355.1,286046998.5,N
1581441375.9,286046999.2,N
1581441395.7,286046996.6,N
1581441415.5,286046999.3,N
1581441435.4,286046997.0,N
1581441455.2,286046999.0,N
1581441475.0,286047001.9,N
1581441476.0,286047001.9,N
1581441495.8,286047002.6,N
1581441515.6,286047000.1,N
1581441535.5,286047001.0,N
1581441555.3,286047001.9,N
1581441575.1,286047003.6,N
1581441595.9,286047003.6,N
1581441615.7,286047003.2,N
1581441635.6,286047002.7,N
1581441655.4,286046998.4,N
1581441675.2,286047000.4,N
1581441695.1,286047002.3,N
1581441696.0,286047002.3,N
1581441715.8,286047001.4,N
1581441735.6,286047002.5,N
1581441755.5,286047001.0,N
1581441775.3,286046999.8,N
1581441795.2,286046999.7,N
1581441815.9,286046999.7,N
1581441835.7,286046998.2,N
1581441855.6,286047000.3,N
1581441875.4,286047000.3,N
1581441895.2,286047002.7,N
1581441915.1,286047002.5,N
1581441916.0,286047002.5,N
1581441935.8,286047002.0,N
1581441955.7,286047003.8,N
1581441975.5,286047011.9,Y
1581441995.3,286047005.1,P
1581442015.2,286047003.3,N
1581442035.0,286047002.0,N
1581442035.9,286047002.0,N
1581442055.8,286047002.0,N
1581442075.6,286047001.3,N
1581442095.4,286047002.6,N
1581442115.3,286046998.1,N
1581442135.1,286047002.8,N
1581442155.9,286047000.6,N
1581442175.7,286047000.8,N
1581442195.5,286047000.5,N
1581442215.4,286047000.4,N
1581442235.2,286047000.2,N
1581442255.0,286047002.5,N
1581442256.0,286047002.5,N
1581442275.8,286047000.0,N
1581442295.6,286047001.0,N
1581442315.5,286046999.8,N
1581442335.3,286047002.6,N
1581442355.1,286047001.7,N
1581442375.9,286047001.7,N
1581442395.7,286047004.3,Y
1581442415.6,286047002.3,P
1581442435.4,286047000.0,N
1581442455.2,286047003.7,P
1581442475.1,286047003.8,N
1581442476.0,286047003.8,N
1581442495.8,286046999.9,N
1581442515.6,286046998.4,N
1581442535.5,286046998.4,N
1581442555.3,286047000.5,N
1581442575.2,286046998.3,N
1581442595.9,286046999.3,N
1581442615.7,286046998.7,N
1581442635.6,286046998.8,N
1581442655.4,286046998.5,N
1581442675.3,286046999.8,N
1581442695.1,286047001.1,N
1581442696.0,286047001.1,N
1581442715.8,286047002.4,N
1581442735.7,286047003.9,N
1581442755.5,286047002.0,N
1581442775.3,286047001.6,N
1581442795.2,286047003.6,N
1581442815.0,286047004.0,N
1581442815.9,286047004.0,N
1581442835.8,286047001.9,N
1581442855.6,286047002.3,N
1581442875.4,286047002.4,N
1581442895.3,286047000.6,N
1581442915.1,286047000.5,N
1581442935.8,286046998.6,N
1581442955.7,286047003.1,N
1581442975.5,286047002.2,N
1581442995.4,286047001.0,N
1581443015.2,286047002.7,N
1581443035.0,286047001.3,N
1581443035.9,286047001.3,N
1581443055.8,286047002.1,N
1581443075.6,286047001.3,N
1581443095.5,286047002.5,N
1581443115.3,286047002.2,N
1581443135.1,286047004.2,N
1581443155.9,286047004.2,N
1581443175.7,286047006.0,Y
1581443195.6,286047002.2,P
1581443215.4,286047002.1,P
1581443235.2,286047001.0,P
1581443255.1,286046998.7,N
1581443256.0,286046998.7,N
1581443275.8,286046996.8,N
1581443295.6,286046997.5,N
1581443315.5,286046999.2,N
1581443335.3,286047001.1,N
1581443355.2,286047002.7,N
1581443375.9,286047002.3,N
1581443395.7,286047002.7,N
1581443415.6,286047002.4,N
1581443435.4,286047002.5,N
1581443455.2,286047001.7,N
1581443475.1,286047002.1,N
1581443476.0,286047002.1,N
1581443495.8,286047004.1,N
1581443515.7,286047001.5,N
1581443535.5,286047000.4,N
1581443555.3,286046998.6,N
1581443575.2,286047000.8,N
1581443595.0,286047001.1,N
1581443595.9,286047001.1,N
1581443615.8,286046998.6,N
1581443635.6,286046997.2,N
1581443655.4,286046996.8,N
1581443675.3,286046996.9,N
1581443695.1,286046997.2,N
1581443715.8,286046997.6,N
1581443735.7,286046995.0,N
1581443755.5,286046997.8,N
1581443775.4,286046997.1,N
1581443795.2,286047004.4,N
1581443815.0,286047007.2,N
1581443815.9,286047007.2,N
1581443835.8,286047008.8,N
1581443855.6,286047010.3,Y
1581443875.5,286047007.8,P
1581443895.3,286047012.0,P
1581443915.1,286047008.2,N
1581443935.9,286047008.3,N
1581443955.7,286047005.8,N
1581443975.5,286047004.1,N
1581443995.4,286047006.9,N
